EW1616 Weather Reports


time (UTC)temp
F
wind
direction
speed
knots
gust
knots
rain 1hr
in
rain 24hr
in
rain mn
in
humidity
%
barometer
mb
20260505065012 58 155 0.0 0.0 0.00 0.00 0.00 88 1013.4
20260505064506 58 155 0.0 0.0 0.00 0.00 0.00 88 1013.4
20260505064003 58 155 0.0 0.0 0.00 0.00 0.00 88 1013.6
20260505063502 59 155 0.0 0.0 0.00 0.00 0.00 87 1013.7
20260505063007 59 155 0.0 0.0 0.00 0.00 0.00 87 1013.8
20260505062505 59 155 0.0 0.0 0.00 0.00 0.00 87 1013.8
20260505062003 59 155 0.0 0.0 0.00 0.00 0.00 87 1013.9
20260505061527 59 155 0.0 0.9 0.00 0.00 0.00 86 1014.0
20260505061008 59 155 0.0 0.9 0.00 0.00 0.00 86 1014.0
20260505060508 60 155 0.0 0.0 0.00 0.00 0.00 85 1014.1
20260505060018 60 155 0.0 0.0 0.00 0.00 0.00 85 1014.3
20260505055511 60 155 0.0 0.0 0.00 0.00 0.00 84 1014.2
20260505055011 60 155 0.0 0.0 0.00 0.00 0.00 84 1014.3
20260505054505 60 155 0.0 0.0 0.00 0.00 0.00 84 1014.5
20260505054003 61 155 0.0 0.0 0.00 0.00 0.00 83 1014.5
20260505053504 61 155 0.0 0.0 0.00 0.00 0.00 82 1014.6
20260505053006 61 155 0.0 0.0 0.00 0.00 0.00 82 1014.4
20260505052503 61 155 0.0 0.0 0.00 0.00 0.00 81 1014.5
20260505052006 62 155 0.0 0.0 0.00 0.00 0.00 80 1014.5
20260505051508 62 155 0.0 0.0 0.00 0.00 0.00 80 1014.5
20260505051009 62 155 0.0 0.0 0.00 0.00 0.00 79 1014.5
20260505050506 62 155 0.0 0.0 0.00 0.00 0.00 78 1014.5
20260505041512 64 132 0.0 1.7 0.00 0.00 0.00 74 1014.5
20260505041006 64 229 0.0 3.5 0.00 0.00 0.00 74 1014.4
20260505040506 64 194 0.0 3.5 0.00 0.00 0.00 74 1014.4
20260505040013 64 182 0.0 2.6 0.00 0.00 0.00 74 1014.4
20260505035507 64 182 0.9 4.3 0.00 0.00 0.00 73 1014.4
20260505035007 64 196 0.9 4.3 0.00 0.00 0.00 73 1014.4
20260505034522 64 189 0.0 2.6 0.00 0.00 0.00 72 1014.5
20260505034011 65 170 0.0 2.6 0.00 0.00 0.00 72 1014.5
20260505033510 65 220 0.9 2.6 0.00 0.00 0.00 72 1014.6
20260505033024 65 184 0.0 4.3 0.00 0.00 0.00 72 1014.6
20260505032507 65 211 0.9 4.3 0.00 0.00 0.00 71 1014.6
20260505032011 65 171 0.0 1.7 0.00 0.00 0.00 71 1014.4
20260505031512 65 172 0.0 1.7 0.00 0.00 0.00 70 1014.5
20260505031003 65 202 0.0 2.6 0.00 0.00 0.00 70 1014.5
20260505030504 65 202 0.0 2.6 0.00 0.00 0.00 70 1014.4
20260505030012 65 202 0.9 3.5 0.00 0.00 0.00 69 1014.4
20260505025507 65 202 0.9 3.5 0.00 0.00 0.00 69 1014.2
20260505025008 65 194 0.9 2.6 0.00 0.00 0.00 68 1014.3
20260505024529 65 231 0.0 1.7 0.00 0.00 0.00 68 1014.0
20260505024007 66 193 0.0 3.5 0.00 0.00 0.00 68 1014.1
20260505023508 66 142 0.9 3.5 0.00 0.00 0.00 67 1014.0
20260505023025 66 156 0.0 1.7 0.00 0.00 0.00 66 1014.1
20260505022508 66 156 0.0 2.6 0.00 0.00 0.00 66 1014.0
20260505022012 66 145 0.0 2.6 0.00 0.00 0.00 66 1014.0
20260505021527 67 196 0.0 2.6 0.00 0.00 0.00 66 1014.0
20260505021011 67 172 0.0 1.7 0.00 0.00 0.00 65 1014.0
20260505020512 67 172 0.0 1.7 0.00 0.00 0.00 65 1014.0
20260505020020 68 157 0.0 1.7 0.00 0.00 0.00 65 1013.9
20260505015504 68 195 0.0 0.0 0.00 0.00 0.00 65 1013.7
20260505015007 68 195 0.0 0.0 0.00 0.00 0.00 64 1013.6
20260505014511 69 195 0.0 0.0 0.00 0.00 0.00 63 1013.6
20260505014008 69 195 0.0 0.9 0.00 0.00 0.00 61 1013.8
20260505013509 69 195 0.0 1.7 0.00 0.00 0.00 59 1013.6
20260505013017 69 195 0.0 2.6 0.00 0.00 0.00 59 1013.7
20260505012509 70 195 0.9 3.5 0.00 0.00 0.00 58 1013.6
20260505012009 70 200 0.9 3.5 0.00 0.00 0.00 57 1013.4
20260505011531 70 213 1.7 3.5 0.00 0.00 0.00 56 1013.4
20260505011010 70 213 1.7 3.5 0.00 0.00 0.00 55 1013.3
20260505010513 71 192 0.9 3.5 0.00 0.00 0.00 55 1013.4
20260505010027 71 212 1.7 3.5 0.00 0.00 0.00 55 1013.6
20260505005510 71 207 0.9 3.5 0.00 0.00 0.00 54 1013.5
20260505005012 72 222 1.7 3.5 0.00 0.00 0.00 54 1013.2
20260505004519 72 205 0.9 2.6 0.00 0.00 0.00 53 1013.2
20260505004007 73 205 0.9 2.6 0.00 0.00 0.00 52 1013.1
20260505003507 73 213 1.7 2.6 0.00 0.00 0.00 50 1013.2
20260505003016 73 223 0.9 2.6 0.00 0.00 0.00 50 1013.3
20260505002509 73 215 0.9 3.5 0.00 0.00 0.00 50 1013.5
20260505002012 74 214 1.7 4.3 0.00 0.00 0.00 49 1013.5
20260505001520 74 44 1.7 6.1 0.00 0.00 0.00 48 1013.5
20260505001014 74 221 1.7 6.1 0.00 0.00 0.00 48 1013.7
20260505000513 74 226 2.6 4.3 0.00 0.00 0.00 47 1013.8
20260505000036 75 239 1.7 4.3 0.00 0.00 0.00 48 1013.9
20260504235510 75 217 0.9 4.3 0.00 0.00 0.00 48 1014.0
20260504235010 75 263 1.7 4.3 0.00 0.00 0.00 47 1014.0
20260504234528 76 228 1.7 4.3 0.00 0.00 0.00 46 1014.0
20260504234010 76 248 0.9 4.3 0.00 0.00 0.00 45 1013.9
20260504233513 77 238 1.7 6.1 0.00 0.00 0.00 45 1013.9
20260504233013 77 263 2.6 6.1 0.00 0.00 0.00 44 1013.9
20260504232507 77 222 1.7 6.1 0.00 0.00 0.00 44 1013.9
20260504232010 77 249 2.6 5.2 0.00 0.00 0.00 44 1013.9
20260504231518 77 231 2.6 6.1 0.00 0.00 0.00 44 1014.0
20260504231009 77 227 3.5 6.1 0.00 0.00 0.00 45 1014.1
20260504230506 78 260 2.6 7.8 0.00 0.00 0.00 44 1014.1
20260504230022 78 223 3.5 7.8 0.00 0.00 0.00 43 1014.0
20260504225507 78 204 2.6 7.8 0.00 0.00 0.00 43 1014.0
20260504225015 78 269 3.5 7.8 0.00 0.00 0.00 43 1014.2
20260504224525 78 234 2.6 7.0 0.00 0.00 0.00 45 1014.3
20260504224009 78 236 2.6 7.8 0.00 0.00 0.00 44 1014.3
20260504223511 78 289 1.7 7.8 0.00 0.00 0.00 45 1014.4
20260504223026 79 240 1.7 7.8 0.00 0.00 0.00 44 1014.3
20260504222506 79 325 2.6 7.8 0.00 0.00 0.00 43 1014.3
20260504222014 79 234 1.7 7.8 0.00 0.00 0.00 43 1014.4
20260504221515 79 220 1.7 8.7 0.00 0.00 0.00 44 1014.5
20260504221008 79 242 3.5 8.7 0.00 0.00 0.00 45 1014.6
20260504220510 79 222 0.9 8.7 0.00 0.00 0.00 45 1014.6
20260504220020 79 250 3.5 8.7 0.00 0.00 0.00 43 1014.7
20260504215507 80 294 2.6 8.7 0.00 0.00 0.00 44 1014.7
20260504215013 80 262 3.5 8.7 0.00 0.00 0.00 45 1014.8
20260504214504 80 225 0.9 7.0 0.00 0.00 0.00 45 1014.7
20260504214002 80 183 2.6 8.7 0.00 0.00 0.00 43 1014.8
20260504213503 80 216 4.3 8.7 0.00 0.00 0.00 43 1014.8
20260504213007 80 240 3.5 7.8 0.00 0.00 0.00 46 1014.8
20260504212507 80 209 2.6 7.8 0.00 0.00 0.00 44 1014.9
20260504212008 80 262 4.3 7.8 0.00 0.00 0.00 46 1014.8
20260504211513 80 244 3.5 7.8 0.00 0.00 0.00 45 1014.9
20260504211007 80 138 0.9 6.1 0.00 0.00 0.00 44 1015.0
20260504210508 79 231 0.9 8.7 0.00 0.00 0.00 44 1015.0
20260504210023 80 240 2.6 8.7 0.00 0.00 0.00 45 1015.2
20260504205508 79 246 5.2 8.7 0.00 0.00 0.00 45 1015.6
20260504205010 80 267 3.5 7.0 0.00 0.00 0.00 45 1015.6
20260504204504 80 276 1.7 7.8 0.00 0.00 0.00 45 1015.5
20260504204002 80 254 1.7 12.2 0.00 0.00 0.00 46 1015.5
20260504203504 80 294 4.3 12.2 0.00 0.00 0.00 45 1015.6
20260504203008 80 268 4.3 10.4 0.00 0.00 0.00 44 1015.8
20260504202506 80 200 2.6 7.8 0.00 0.00 0.00 42 1015.8
20260504202007 80 136 2.6 8.7 0.00 0.00 0.00 42 1015.9
20260504201513 80 290 4.3 9.6 0.00 0.00 0.00 46 1015.9
20260504201004 80 178 3.5 9.6 0.00 0.00 0.00 42 1015.9
20260504200507 80 198 2.6 9.6 0.00 0.00 0.00 45 1016.0
20260504200016 80 180 2.6 9.6 0.00 0.00 0.00 43 1016.0
20260504195507 81 236 1.7 9.6 0.00 0.00 0.00 44 1016.1
20260504195011 80 248 4.3 9.6 0.00 0.00 0.00 44 1016.2
20260504194522 80 38 1.7 8.7 0.00 0.00 0.00 43 1016.3
20260504194009 80 214 2.6 9.6 0.00 0.00 0.00 44 1016.5
20260504193509 80 229 4.3 9.6 0.00 0.00 0.00 42 1016.5
20260504193004 80 261 3.5 8.7 0.00 0.00 0.00 42 1016.6
20260504192504 80 254 3.5 7.8 0.00 0.00 0.00 46 1016.7
20260504192003 80 240 3.5 7.8 0.00 0.00 0.00 43 1016.8
20260504191508 80 225 0.9 7.8 0.00 0.00 0.00 43 1016.8
20260504191003 80 163 2.6 7.8 0.00 0.00 0.00 42 1016.9
20260504190506 80 229 4.3 8.7 0.00 0.00 0.00 43 1016.9
20260504190014 80 181 2.6 9.6 0.00 0.00 0.00 41 1016.9
20260504185507 80 132 3.5 9.6 0.00 0.00 0.00 41 1017.1
20260504185007 80 227 4.3 8.7 0.00 0.00 0.00 42 1017.0
20260504184520 79 207 3.5 7.8 0.00 0.00 0.00 42 1016.8
20260504184009 80 290 1.7 7.0 0.00 0.00 0.00 45 1017.0
20260504183511 80 299 1.7 10.4 0.00 0.00 0.00 44 1017.1
20260504183026 80 213 4.3 10.4 0.00 0.00 0.00 42 1017.2
20260504182509 80 247 1.7 9.6 0.00 0.00 0.00 45 1017.2
20260504182005 79 229 1.7 8.7 0.00 0.00 0.00 43 1017.3
20260504181507 79 246 3.5 10.4 0.00 0.00 0.00 42 1017.5
20260504181004 79 217 2.6 10.4 0.00 0.00 0.00 44 1017.7
20260504180504 78 200 5.2 10.4 0.00 0.00 0.00 43 1017.6
20260504180013 78 240 6.1 10.4 0.00 0.00 0.00 42 1017.6
20260504175503 78 222 3.5 9.6 0.00 0.00 0.00 44 1017.7
20260504175006 78 212 2.6 8.7 0.00 0.00 0.00 42 1017.8
20260504174514 78 225 2.6 8.7 0.00 0.00 0.00 44 1017.8
20260504174008 78 206 4.3 9.6 0.00 0.00 0.00 41 1017.8
20260504173509 78 94 1.7 10.4 0.00 0.00 0.00 44 1017.8
20260504173020 79 205 5.2 10.4 0.00 0.00 0.00 41 1017.7
20260504172509 78 208 2.6 6.1 0.00 0.00 0.00 40 1017.9
20260504172014 78 209 2.6 6.1 0.00 0.00 0.00 46 1017.9
20260504171524 78 272 2.6 13.0 0.00 0.00 0.00 43 1018.0
20260504171010 78 309 2.6 13.0 0.00 0.00 0.00 44 1018.0
20260504170504 78 221 2.6 8.7 0.00 0.00 0.00 45 1018.0
20260504151006 74 103 2.6 7.0 0.00 0.00 0.00 53 1018.6
20260504150511 74 210 1.7 7.0 0.00 0.00 0.00 54 1018.6
20260504141009 70 190 2.6 6.1 0.00 0.00 0.00 68 1018.6
20260504140509 69 229 0.9 4.3 0.00 0.00 0.00 69 1018.6
20260504130511 60 32 0.0 0.9 0.00 0.00 0.00 93 1018.6
20260504110507 51 134 0.0 0.9 0.00 0.00 0.00 91 1017.9
20260504100506 52 215 0.0 0.0 0.00 0.00 0.00 90 1018.0
20260504081527 56 215 0.0 0.9 0.00 0.00 0.00 83 1018.4
20260504081010 56 215 0.0 0.0 0.00 0.00 0.00 83 1018.3
20260504080506 56 215 0.0 0.0 0.00 0.00 0.00 82 1018.1